Flag for Sweden Weather past 2 weeks in Helsingborg, Sweden

Now
68 °F

Mild.


Feels Like: 68 °F
Forecast: 46 / 62 °F
Wind: 13 mph from Southeast

Location: Ljungbyhed


UV Index: 0 (Low)

Visibility: N/A


Pressure: 30.09 "Hg

Humidity: 53%

Dew point: 50 °F

Location of HelsingborgLocation

Historic Weather in Helsingborg

°F

Helsingborg temperature yesterday

Maximum temperature yesterday: 64 °F (at 1:20 PM)
Minimum temperature yesterday: 30 °F (at 6:20 AM)
Average temperature yesterday: 52 °F

Past Weeks' High & Low Weather Summary

 TemperatureHumidityPressure
High68 °F (Apr 20, 12:50 PM)100% (Apr 5, 9:20 PM)30.42 "Hg (Apr 5, 9:20 PM)
Low27 °F (Apr 16, 5:20 AM)41% (Apr 15, 6:50 PM)29.47 "Hg (Apr 14, 6:50 AM)
Average47 °F86%29.94 "Hg
* Reported Apr 5 12:20 PM — Apr 20 12:50 PM, Helsingborg, Weather by CustomWeather, © 2014

Note: Actual official high and low records may vary slightly from our data, if they occured in-between our weather recording intervals... More about our weather records

Advertising

Historic Weather Conditions — Data for Previous 24 hours

 ConditionsComfort  
Time TempWeatherWind HumidityBarometerVisibility
12:50 PM
Apr 20
68 °FPassing clouds.10 mph53%30.09 "HgN/A
12:20 PM66 °FMild.12 mph56%30.09 "HgN/A
11:50 AM64 °FMild.12 mph56%30.12 "HgN/A
11:20 AM63 °FMild.12 mph56%30.12 "HgN/A
10:50 AM61 °FRefreshingly cool.10 mph59%30.12 "HgN/A
10:20 AM59 °FRefreshingly cool.13 mph59%30.12 "HgN/A
9:50 AM57 °FRefreshingly cool.10 mph59%30.12 "HgN/A
9:20 AM55 °FCool.7 mph63%30.15 "HgN/A
8:50 AM52 °FCool.3 mph72%30.15 "HgN/A
8:20 AM50 °FCool.3 mph71%30.15 "HgN/A
7:50 AM46 °FCool.2 mph82%30.15 "HgN/A
7:20 AM43 °FQuite cool.3 mph87%30.15 "HgN/A
6:50 AMN/ANo windN/A30.15 "HgN/A
6:20 AM36 °FChilly.3 mph100%30.15 "HgN/A
5:50 AM36 °FChilly.No wind100%30.15 "HgN/A
5:20 AM37 °FChilly.2 mph100%30.15 "HgN/A
4:50 AM37 °FChilly.1 mph100%30.15 "HgN/A
4:20 AMN/AFog.1 mphN/A30.15 "Hg1 mi
3:50 AMN/A2 mphN/A30.15 "HgN/A
3:20 AM37 °FChilly.No wind100%30.15 "HgN/A
2:50 AM39 °FFog.No wind100%30.18 "Hg4 mi
2:20 AM39 °FChilly.No wind100%30.18 "HgN/A
1:50 AM41 °FQuite cool.2 mph93%30.18 "HgN/A
1:20 AM39 °FChilly.1 mph100%30.18 "HgN/A
12:50 AM41 °FQuite cool.No wind100%30.21 "HgN/A
12:20 AM39 °FChilly.No wind100%30.21 "HgN/A
11:50 PM
Apr 19
43 °FQuite cool.1 mph93%30.21 "HgN/A
11:20 PM45 °FQuite cool.1 mph93%30.21 "HgN/A
10:50 PM46 °FCool.2 mph87%30.21 "HgN/A
10:20 PM46 °FCool.No wind93%30.21 "HgN/A
9:50 PM48 °FCool.No wind94%30.21 "HgN/A
9:20 PM52 °FCool.3 mph77%30.21 "HgN/A
8:50 PM55 °FCool.1 mph77%30.21 "HgN/A
8:20 PM55 °FCool.3 mph72%30.21 "HgN/A
7:50 PM57 °FCool.3 mph72%30.18 "HgN/A
7:20 PM61 °FCool.7 mph63%30.18 "HgN/A
6:50 PM64 °FMild.7 mph46%30.18 "HgN/A
6:20 PM64 °FMild.8 mph49%30.18 "HgN/A
5:50 PM64 °FMild.6 mph46%30.18 "HgN/A
5:20 PM64 °FMild.9 mph46%30.18 "HgN/A
4:50 PM64 °FMild.7 mph49%30.21 "HgN/A
4:20 PM64 °FMild.8 mph46%30.21 "HgN/A
3:50 PM64 °FMild.7 mph49%30.21 "HgN/A
3:20 PM64 °FMild.8 mph46%30.21 "HgN/A
2:50 PM64 °FMild.9 mph46%30.24 "HgN/A
2:20 PM64 °FMild.10 mph46%30.24 "HgN/A
1:50 PM64 °FMild.9 mph49%30.24 "HgN/A
1:20 PM64 °FMild.6 mph52%30.24 "HgN/A
Weather by CustomWeather, © 2014

See weather overview